Temp
4 5 6 7 8 8 8 7 7 6 6 3 1 3 5 8 8 9 8 8 8 7 8 6 5 7 10 9 8 7 8 7 7 8 11 10 9 9 8 9 8 9 9 11
4 4 5 6 8 8 8 6 6 6 6 3 -1 4 6 8 9 9 9 8 8 9 8 7 7 9 10 10 8 7 8 7 7 7 8 10 9 10 10 9 9 9 9 11
4 4 4 6 7 8 7 4 6 5 1 1 4 5 5 7 8 8 8 6 8 8 6 7 6 8 9 9 9 10 8 7 7 7 8 8 7 8 8 8 7 8 8 9
4 4 4 5 6 6 6 2 5 3 3 2 0 3 2 3 4 6 7 6 6 5 5 5 6 7 6 7 9 7 6 6 6 6 6 7 7 7 7 7 7 7 8 8
4 4 4 4 5 7 7 3 4 2 3 3 3 4 4 0 3 5 4 5 4 5 5 5 5 5 5 6 6 6 5 4 6 6 7 7 7 7 7 7 7 8 8 8
5 4 4 4 5 6 5 3 3 3 3 3 3 3 5 4 5 5 5 5 5 5 5 4 5 4 5 5 4 5 5 4 4 5 6 6 5 7 7 8 6 5 7 6
4 4 4 5 4 4 4 4 3 4 4 4 3 1 3 5 4 4 4 5 5 4 4 3 3 3 4 4 4 5 5 4 5 5 1 0 6 6 5 6 6 5 5 5
4 5 5 5 4 4 4 4 4 3 3 3 2 -0 2 2 2 2 3 3 4 3 3 3 -0 2 2 3 2 3 4 4 5 4 2 3 6 6 6 5 6 4 4 4
4 4 4 4 4 4 4 4 4 3 3 0 3 2 -0 2 1 -0 1 3 2 3 2 1 0 1 1 2 3 2 3 3 4 2 3 -1 4 4 5 5 6 3 2 2
3 3 3 3 4 4 3 4 4 3 2 1 1 0 3 -0 2 2 -4 -0 1 2 1 -0 -1 0 0 2 2 1 -1 -1 3 4 5 0 3 3 4 4 3 0 -1 -1
3 3 3 3 3 4 3 3 3 3 2 3 2 3 1 2 2 2 -0 -0 -2 -3 -0 0 1 1 1 1 -1 1 1 3 2 0 2 1 -1 2 3 -2 -1 -2 -3 -2
2 3 3 3 3 3 4 3 3 3 2 2 2 2 3 3 3 2 1 -0 -0 1 2 1 1 1 -2 -1 2 -2 3 2 3 3 2 -1 -4 -4 -5 -4 -4 -5 -5 -4
2 2 2 2 3 3 3 3 3 2 1 2 1 0 3 3 2 2 1 -2 0 1 1 2 1 -1 -0 1 1 1 1 -2 1 2 -2 -4 -6 -5 -7 -7 -6 -7 -6 -6
2 3 3 3 3 3 3 2 2 2 1 2 0 2 1 1 1 1 0 -0 -1 -1 0 1 1 0 0 -1 1 -1 -6 -5 -5 -1 -6 -5 -6 -8 -9 -9 -8 -8 -8 -7
2 2 3 3 3 3 3 3 2 2 2 2 0 0 -1 -1 -0 -0 -1 -1 -3 -2 -1 -1 -0 -1 0 -2 -5 -8 -8 -9 -7 -5 -8 -9 -7 -8 -10 -11 -10 -10 -9 -8
2 2 2 3 4 3 3 1 2 1 2 1 -2 -2 -4 -1 -1 -1 -2 -3 -6 -6 -3 -1 -1 -3 1 -1 -7 -9 -9 -10 -10 -9 -11 -11 -10 -10 -12 -12 -12 -12 -11 -10
1 2 2 3 3 3 2 1 1 1 1 1 -4 -4 -4 -3 -3 -5 -6 -1 -2 -3 -4 -2 -2 -4 -5 -8 -8 -9 -10 -11 -11 -12 -12 -11 -12 -12 -13 -13 -13 -13 -12 -12
1 1 2 2 2 1 1 -1 -0 0 0 -1 -4 -4 -3 -3 -5 -4 -7 -5 -5 -5 -4 -2 -2 -5 -7 -9 -10 -10 -11 -12 -11 -12 -13 -13 -13 -13 -13 -13 -13 -12 -12 -12
1 2 2 2 2 -1 -1 -1 -1 -1 -0 -3 -4 -3 -3 -5 -6 -7 -4 -7 -7 -4 -3 -2 -4 -7 -9 -10 -11 -11 -12 -13 -13 -13 -12 -13 -13 -12 -13 -13 -13 -12 -12 -12
2 2 2 -2 -1 -2 -1 -1 -6 -5 -6 -7 -2 -4 -2 -4 -6 -6 -6 -5 -5 -5 -3 -4 -7 -8 -10 -11 -12 -12 -12 -12 -12 -12 -12 -12 -12 -12 -12 -13 -12 -12 -12 -12
1 -2 -0 -1 -1 -1 -7 -4 -6 -8 -5 -3 -2 -4 -4 -5 -4 -4 -4 -8 -6 -6 -3 -4 -6 -9 -12 -12 -12 -13 -12 -12 -12 -13 -13 -13 -13 -13 -13 -13 -13 -13 -13 -13
-0 -1 -1 -1 -6 -9 -5 -9 -7 -5 -2 -3 -4 -4 -5 -5 -7 -6 -6 -7 -7 -5 -6 -6 -10 -13 -13 -13 -13 -13 -14 -14 -14 -14 -14 -14 -14 -14 -14 -14 -14 -14 -14 -14
-1 -1 -3 -6 -8 -4 -6 -6 -5 -5 -5 -7 -6 -5 -6 -6 -7 -9 -7 -6 -6 -5 -7 -9 -13 -13 -14 -15 -15 -15 -15 -15 -15 -15 -15 -15 -15 -15 -15 -15 -15 -15 -15 -15
-3 -4 -2 -5 -7 -7 -6 -6 -6 -7 -8 -9 -9 -7 -5 -7 -6 -9 -6 -6 -6 -8 -8 -11 -14 -15 -15 -15 -15 -15 -16 -16 -16 -17 -17 -16 -16 -16 -16 -16 -16 -16 -16 -16
-2 -3 -1 -6 -5 -8 -12 -14 -10 -12 -14 -13 -12 -7 -7 -7 -6 -7 -7 -5 -10 -11 -10 -12 -14 -15 -15 -15 -15 -15 -16 -17 -17 -17 -18 -17 -17 -17 -16 -16 -16 -16 -16 -17
-4 -8 -5 -6 -6 -12 -14 -17 -16 -17 -14 -16 -13 -9 -7 -6 -7 -8 -12 -9 -12 -12 -12 -13 -14 -14 -15 -15 -15 -15 -16 -16 -17 -17 -17 -17 -18 -18 -18 -17 -17 -17 -17 -17
-9 -11 -9 -10 -12 -13 -16 -19 -19 -15 -17 -14 -15 -8 -8 -10 -11 -14 -13 -13 -13 -13 -13 -13 -14 -15 -16 -16 -15 -15 -16 -16 -16 -16 -17 -18 -18 -17 -18 -19 -18 -18 -17 -17
Height
821 817 815 813 811 809 810 810 812 808 806 819 824 819 804 792 786 785 785 783 783 783 774 785 785 769 755 755 760 764 760 761 755 749 726 731 733 737 740 736 728 723 707 671
822 818 815 813 811 811 810 810 808 808 808 823 833 808 799 792 787 784 785 783 781 775 774 779 772 761 753 754 757 762 758 763 760 753 739 730 734 733 729 733 728 715 708 673
823 820 816 812 810 809 810 813 811 811 812 817 813 810 804 796 786 785 782 786 779 774 782 773 775 764 756 755 756 754 758 757 755 750 743 745 744 737 730 737 738 715 708 686
825 822 817 813 811 810 810 814 813 815 819 818 825 814 814 813 802 789 786 784 783 784 780 776 771 764 766 761 756 759 762 760 755 749 747 746 741 736 731 731 726 726 703 696
825 823 820 817 813 812 812 817 816 818 813 815 813 810 807 818 804 797 793 789 786 784 781 774 770 770 769 765 760 758 761 764 750 747 743 740 736 727 725 722 717 710 704 701
825 824 822 819 815 812 812 815 815 816 814 812 813 808 801 801 798 791 788 786 785 778 772 773 766 768 763 763 763 759 757 760 760 747 743 744 742 724 717 709 720 724 710 717
825 825 823 820 819 818 817 817 818 816 809 809 808 812 805 797 796 794 787 784 782 776 774 769 764 761 756 754 752 753 752 756 751 749 769 789 726 723 724 721 724 723 721 719
826 824 822 821 819 818 817 817 817 816 811 808 811 811 804 800 799 796 789 785 780 777 776 771 780 763 760 754 754 749 747 749 747 753 769 747 723 725 726 730 725 729 727 724
825 824 821 821 820 817 815 816 815 814 813 811 802 806 808 804 800 799 789 781 779 778 779 781 786 779 774 763 752 752 747 749 748 760 758 785 735 730 728 726 719 738 737 732
825 823 821 818 817 816 815 813 813 813 810 804 803 807 800 802 797 794 802 790 785 781 784 789 794 780 771 761 762 763 774 768 751 745 736 760 740 733 728 732 746 750 749 745
821 820 818 815 813 812 812 810 810 809 803 796 796 795 797 795 793 790 792 791 793 796 789 784 773 771 764 765 770 763 759 748 756 764 755 760 754 738 739 768 757 759 757 752
819 817 815 813 811 810 808 806 804 804 802 795 792 789 789 789 785 788 786 788 788 783 779 780 776 774 783 776 764 766 752 754 748 749 748 768 774 774 777 774 770 768 764 757
817 815 812 809 807 804 803 801 801 800 795 790 788 784 783 782 781 782 784 786 783 780 778 774 774 782 771 767 766 760 755 765 754 749 772 777 782 781 784 780 776 773 769 762
813 810 808 805 803 801 800 798 797 797 794 789 784 781 781 782 780 780 781 781 781 781 779 775 771 774 767 770 758 768 794 783 783 765 783 782 782 788 788 784 779 775 770 765
808 806 802 799 798 797 796 795 795 793 795 788 789 782 782 781 781 780 780 781 782 782 779 778 773 770 763 763 781 808 811 813 803 788 802 802 790 791 792 788 784 779 772 764
805 801 797 793 793 792 793 792 793 794 794 793 799 785 782 782 781 780 780 781 783 784 780 775 769 765 759 768 803 817 817 816 814 808 807 803 799 795 794 791 786 781 775 770
801 797 794 792 790 791 793 797 796 793 792 792 801 797 786 785 783 781 781 780 780 779 781 775 771 778 782 801 813 818 818 816 813 813 807 802 803 802 797 793 788 782 777 773
796 793 792 792 791 791 793 795 793 793 793 795 806 800 792 787 789 789 783 785 783 780 778 774 775 789 799 817 823 822 820 816 814 814 812 812 808 802 797 793 788 782 777 773
793 790 791 791 792 795 796 794 794 793 797 803 807 806 807 791 792 791 785 788 796 780 781 778 786 804 820 825 826 825 823 822 820 815 813 810 806 802 798 793 788 785 780 775
791 791 791 796 796 794 794 795 796 798 799 802 803 805 804 801 799 794 794 790 792 793 784 785 800 818 828 829 828 825 823 821 819 816 811 809 806 803 800 796 792 788 783 778
793 795 796 796 794 795 796 803 810 813 812 802 801 806 806 800 801 797 793 804 796 802 787 788 801 820 831 830 828 827 825 822 820 819 817 814 811 808 803 799 794 790 786 782
797 797 796 795 797 805 810 827 817 814 807 807 809 807 804 801 799 801 797 801 801 796 792 797 822 836 834 832 831 829 827 824 822 821 819 816 813 810 807 803 799 795 791 786
795 796 797 802 812 815 824 831 822 821 815 816 814 810 805 800 801 808 801 801 800 790 803 819 840 838 837 835 833 830 829 827 825 823 821 818 815 812 809 806 803 799 795 791
796 802 804 815 824 825 822 823 823 822 821 822 821 814 805 802 802 807 799 797 795 809 815 832 841 842 839 837 835 832 831 829 827 825 823 820 818 815 812 808 805 802 798 795
797 799 801 818 813 820 827 828 826 828 828 828 823 813 808 806 802 802 801 796 824 830 828 837 842 842 840 838 836 834 832 830 828 826 824 822 819 817 814 811 808 804 801 798
799 810 810 813 814 830 832 837 835 830 829 829 827 820 813 807 808 810 833 822 839 839 839 841 842 841 840 839 837 835 833 831 829 828 826 823 821 819 816 813 810 807 804 801
811 822 816 820 825 829 834 837 837 831 832 834 835 818 815 818 826 844 838 843 841 841 841 842 842 842 840 839 837 835 833 831 829 828 826 825 823 820 817 815 813 810 808 805
Wind_Speed
17 19 18 13 11 5 3 1 3 1 1 3 1 2 4 5 5 1 4 2 3 4 2 3 4 5 3 4 5 1 1 4 4 8 12 7 4 1 3 3 7 7 7 8
17 19 18 13 10 5 1 1 2 2 2 1 2 4 4 4 3 3 3 3 6 2 4 2 4 4 4 3 4 3 2 2 5 7 5 1 2 7 7 10 10 9 8 6
19 20 18 15 10 5 1 1 3 2 3 1 2 4 5 4 4 4 3 4 7 2 3 5 4 4 1 2 3 9 2 4 7 9 7 5 10 16 18 7 6 10 12 24
18 19 21 14 10 5 1 2 2 1 4 4 2 1 1 4 5 2 3 4 6 5 4 3 5 4 5 5 8 1 4 5 6 11 12 10 14 17 19 17 14 11 21 24
16 17 17 20 11 5 2 1 1 0 2 1 3 3 2 5 6 3 4 6 8 4 5 6 10 9 4 8 4 4 2 5 4 6 9 12 16 18 16 17 14 11 10 11
12 15 16 16 19 6 4 2 1 0 3 2 1 4 3 4 12 6 7 8 15 18 13 12 12 8 11 7 5 5 4 2 3 9 2 6 10 5 4 3 3 5 7 9
15 14 12 13 13 14 3 3 2 1 4 2 4 3 5 13 10 11 12 10 9 5 7 9 9 12 16 15 16 12 9 6 5 4 2 1 4 3 6 4 4 6 8 13
12 12 13 12 10 8 6 3 2 1 4 1 7 4 4 7 8 4 8 6 5 5 5 3 5 4 4 2 1 6 11 8 2 2 3 6 3 4 3 3 3 10 11 12
13 12 11 10 10 8 6 7 6 2 3 4 4 4 3 4 4 4 5 4 6 4 2 2 1 2 3 5 4 3 2 8 4 1 3 5 2 6 4 3 2 14 14 14
14 15 14 13 13 13 11 7 9 4 3 4 4 2 4 3 3 3 3 6 6 3 2 1 2 3 2 2 1 3 3 2 4 4 3 6 4 12 7 2 4 10 12 12
15 15 15 13 13 13 12 10 12 10 4 6 7 4 5 4 3 2 3 3 3 3 1 1 3 2 2 0 3 4 2 1 2 1 1 5 15 4 4 6 5 9 12 12
16 16 15 14 14 14 11 10 8 10 7 3 15 19 20 19 18 4 3 4 2 2 2 2 2 3 3 1 3 4 2 3 1 2 2 7 7 11 7 8 6 9 11 14
16 17 17 16 16 14 11 12 13 12 3 4 3 5 3 6 9 13 2 2 2 3 2 2 2 3 1 2 4 2 0 7 2 2 5 4 8 6 10 10 10 12 11 13
18 19 20 19 17 13 12 9 9 9 3 3 4 1 1 3 2 5 10 2 1 2 2 2 2 2 2 2 2 3 4 9 7 2 3 2 5 11 11 13 12 13 14 12
19 22 22 17 14 11 11 13 9 8 3 3 4 3 3 3 2 2 3 2 0 1 2 2 2 2 2 2 4 4 5 4 3 2 5 4 6 12 13 11 12 14 14 15
20 22 21 15 10 9 5 2 5 5 1 2 3 2 4 4 5 4 3 2 2 1 2 2 3 3 3 3 3 2 4 5 4 4 10 7 7 8 15 10 13 12 11 13
21 20 15 13 7 3 3 3 6 8 3 1 4 4 3 4 3 3 2 2 2 1 2 2 1 5 4 3 3 10 9 8 3 6 8 2 7 6 13 12 14 16 12 13
21 13 10 5 5 8 4 10 9 2 2 2 2 4 4 6 3 2 1 1 2 2 2 2 3 3 3 4 4 6 8 8 5 10 4 3 8 9 9 13 12 10 10 12
16 7 2 2 4 4 5 11 6 5 3 1 2 1 3 4 2 1 2 2 2 2 2 2 3 3 5 5 6 6 6 4 7 9 5 6 6 8 9 10 11 10 11 11
8 5 1 2 2 8 5 1 3 4 3 3 1 1 3 3 2 3 2 1 1 2 1 2 3 3 4 3 4 4 6 6 6 4 8 9 9 10 10 10 9 10 10 14
6 7 2 5 7 2 4 3 3 3 4 2 2 1 2 1 0 2 1 2 1 2 2 2 2 2 2 5 5 5 8 9 8 7 6 8 7 8 9 10 14 15 17 16
6 6 5 3 4 3 5 1 3 3 1 3 1 3 2 3 1 1 2 1 2 3 1 3 2 0 3 5 5 5 10 10 9 11 9 11 11 13 12 12 14 16 16 19
1 1 2 3 3 7 5 3 4 3 3 3 4 4 2 2 1 1 2 1 3 0 3 2 1 2 4 4 4 4 10 11 10 11 13 13 13 15 14 13 16 17 16 19
2 3 4 3 3 0 3 2 2 2 3 6 4 3 2 2 2 1 1 3 2 3 1 1 1 3 4 4 3 4 6 9 9 10 12 12 13 13 16 17 17 16 17 19
1 2 2 1 2 3 1 0 1 2 2 2 4 3 0 2 2 0 2 3 3 3 2 2 2 3 4 4 3 4 4 7 7 10 11 12 13 13 14 17 16 17 18 20
2 5 3 1 3 2 3 2 2 1 4 1 1 3 3 3 1 4 2 2 1 1 1 1 2 3 4 5 6 5 5 7 7 7 10 11 13 12 11 14 18 16 17 19
3 1 2 2 3 3 2 2 2 6 3 2 1 2 5 3 3 3 3 1 1 3 1 1 2 3 4 7 8 7 7 7 7 6 7 10 12 12 15 16 18 14 14 14
Wind_Direction
5 8 6 7 5 4 261 95 301 35 19 34 60 242 213 295 284 210 295 295 251 226 258 272 246 238 244 147 153 256 181 301 278 234 272 210 138 94 21 331 323 289 262 267
10 9 7 5 13 344 267 256 269 46 92 237 273 280 272 256 273 249 250 265 223 240 272 278 284 317 327 210 188 195 192 263 304 328 349 105 10 324 304 302 259 266 284 271
19 16 10 13 19 347 230 53 320 337 46 28 268 312 276 281 327 261 224 230 268 217 265 212 266 249 336 6 277 314 115 227 227 255 256 284 292 305 292 285 275 290 273 299
14 12 14 26 48 42 360 56 268 76 303 321 287 206 280 289 289 278 262 285 247 201 249 250 238 255 329 299 286 284 189 259 240 260 273 279 275 277 282 287 263 270 298 296
17 17 13 19 11 360 46 76 327 123 279 247 251 232 269 210 292 277 272 250 274 237 248 216 283 284 250 256 277 201 228 259 251 262 262 267 282 281 278 267 285 276 297 297
14 3 23 19 23 31 49 14 8 29 273 209 284 260 236 292 316 256 263 311 307 292 259 255 264 250 264 234 228 225 220 252 311 278 291 297 296 282 292 301 74 316 332 330
16 7 1 2 7 28 16 351 323 276 281 252 275 319 302 305 295 288 291 284 286 311 321 291 263 251 249 245 249 236 245 235 234 264 29 319 228 360 67 85 60 2 338 353
360 356 360 358 354 351 17 40 313 267 278 313 296 312 266 304 305 286 295 303 265 329 304 297 336 314 342 282 293 219 214 227 253 228 194 296 356 11 360 40 39 10 351 356
339 338 351 349 346 345 302 284 232 221 290 244 218 300 269 293 298 301 267 272 309 296 281 360 277 264 241 300 316 7 118 219 197 148 188 226 245 316 312 261 185 8 352 354
345 341 338 327 329 321 337 282 228 209 248 272 144 206 295 217 258 258 312 326 336 356 314 276 228 262 195 284 230 302 347 328 218 221 248 291 314 321 313 98 340 360 353 351
340 337 336 336 328 321 322 292 291 233 256 268 209 233 236 269 224 259 258 360 317 345 340 235 269 245 259 255 239 193 200 212 250 35 198 291 350 340 56 336 330 356 350 347
331 326 330 336 327 322 309 290 288 285 237 269 285 274 265 253 258 264 206 199 203 255 287 308 330 290 317 164 264 310 317 202 260 192 59 65 27 67 33 8 347 347 337 338
336 332 328 319 322 311 310 285 285 283 240 267 277 234 224 287 253 247 268 282 234 264 268 242 235 249 126 257 240 228 70 11 318 175 49 72 48 42 19 3 355 338 339 331
336 330 326 320 316 303 307 288 278 267 314 273 278 283 242 314 249 226 231 228 280 284 275 268 262 228 192 249 261 35 342 338 341 62 36 325 104 38 8 350 349 344 337 336
336 335 335 318 308 315 301 298 291 288 262 311 297 297 339 323 337 274 277 268 182 283 291 228 242 244 239 204 83 42 356 357 350 328 30 293 294 358 3 347 344 338 334 338
335 337 336 335 317 310 306 33 31 47 222 308 317 314 343 329 314 295 261 224 196 155 229 242 250 257 287 58 71 52 351 322 302 320 318 278 318 299 1 339 335 327 338 339
335 337 338 351 352 28 82 61 343 314 305 340 323 339 311 318 322 348 6 248 262 190 261 254 258 25 33 48 49 339 343 336 46 346 331 14 19 326 325 329 323 328 323 332
338 343 338 4 51 99 69 22 355 350 65 51 33 285 354 11 322 331 350 336 354 310 245 328 52 37 51 68 344 344 343 337 9 354 3 284 291 309 331 337 333 345 351 342
344 6 65 132 48 38 331 326 332 60 72 93 71 359 282 360 295 260 344 79 354 295 36 50 70 43 50 350 343 349 351 354 311 326 319 327 347 344 346 348 354 354 350 347
20 33 347 42 360 325 314 35 27 20 345 43 60 181 285 23 349 301 360 359 278 7 331 82 64 82 120 7 345 340 341 334 327 333 357 351 355 353 351 354 351 353 349 349
29 20 36 316 336 6 33 64 66 320 13 354 352 171 274 306 329 278 19 254 286 27 278 102 92 86 360 344 357 5 357 357 7 360 352 353 347 348 350 357 359 360 360 359
310 288 297 329 32 38 78 339 328 57 327 335 347 286 242 290 28 71 317 191 31 252 304 79 85 144 335 355 352 9 5 5 8 12 2 2 6 4 356 2 2 1 3 5
145 76 38 51 322 36 76 347 322 350 346 13 338 318 254 314 95 325 38 58 232 358 46 85 102 360 351 343 343 352 12 15 13 10 15 18 16 23 16 1 7 10 11 12
86 79 23 101 353 157 167 180 209 313 8 345 320 258 263 275 313 191 60 252 51 43 93 95 9 338 339 343 342 357 354 7 9 6 10 13 17 18 25 25 22 14 13 10
108 87 156 111 164 51 84 107 47 360 308 5 334 294 191 289 298 304 341 360 57 34 34 36 347 335 333 341 350 357 352 357 3 10 12 14 14 18 21 23 25 29 26 22
77 37 96 344 91 322 16 10 300 332 333 302 181 265 356 282 283 43 22 313 40 46 19 9 344 350 346 336 336 353 360 360 358 13 17 20 20 14 10 22 21 24 29 27
66 19 19 102 79 152 180 160 259 336 39 21 360 345 225 317 56 39 360 84 53 342 27 19 5 349 338 335 341 349 357 355 358 360 20 25 23 26 25 13 10 13 23 26